Regional Weather Roundup
Issued by NWS

Home | Current Version | Previous Version | Text Only | Print | Product List | Glossary On
Versions: 1 2 3 4 5 6 7 8 9 10 11 12 13 14 15 16 17 18 19 20 21 22 23 24 25 26 27 28 29 30 31 32 33 34 35 36 37 38 39 40 41 42 43 44 45 46 47 48 49 50
000
ASUS45 KBOU 071610
RWRCO

WEATHER ROUNDUP FOR COLORADO
NATIONAL WEATHER SERVICE DENVER/BOULDER CO
1000 AM MDT TUE JUL 07 2015

NOTE: "FAIR" INDICATES FEW OR NO CLOUDS BELOW 12000 FEET WITH NO
SIGNIFICANT WEATHER AND/OR OBSTRUCTIONS TO VISIBILITY.

COZ001>005-013-030-031-071700-
...NORTHWEST COLORADO...

CITY           SKY/WX    TMP DP  RH WIND       PRES   REMARKS
CRAIG          CLOUDY    62  54  74 CALM      30.22
HAYDEN         CLOUDY    57  52  82 NE3       30.23S
MEEKER         CLOUDY    64  53  67 CALM      30.21F
MOUNT WERNER   NOT AVBL
STEAMBOAT SPGS CLOUDY    56  53  90 CALM      30.24S
WALDEN         CLOUDY    55  46  71 CALM      30.31S
$$

COZ006>008-011-071700-
...WEST CENTRAL VALLEYS...

CITY           SKY/WX    TMP DP  RH WIND       PRES   REMARKS
GRAND JUNCTION CLOUDY    70  55  59 W5        30.14S
MONTROSE       PTSUNNY   70  48  45 VRB3      30.20S
EAGLE          LGT RAIN  57  55  94 CALM      30.27R
RIFLE          CLOUDY    62  58  86 NE3       30.19R
DELTA          PTSUNNY   73  49  42 CALM      30.16F
NUCLA          CLOUDY    64  50  59 CALM      30.26S
$$

COZ017>023-064>068-071700-
...SOUTHWEST COLORADO...

CITY           SKY/WX    TMP DP  RH WIND       PRES   REMARKS
DURANGO        CLOUDY    59  55  87 E5        30.27S THUNDER
CORTEZ         MOSUNNY   71  53  52 N9        30.22S
PAGOSA SPRINGS RAIN      54  54 100 NW5       30.36R
TELLURIDE      PTSUNNY   57  49  74 W16       30.40R THUNDER
WOLF CREEK PAS NOT AVBL
$$

COZ009-010-012-014-032>034-037-058>063-071700-
...CENTRAL COLORADO...

CITY           SKY/WX    TMP DP  RH WIND       PRES   REMARKS
ASPEN          PTSUNNY   62  49  62 NW14G22   30.27R
BUENA VISTA    CLOUDY    59  49  70 SE12      30.34F
COPPER MTN     CLOUDY    46  43  87 S7        30.55F
BERTHOUD PASS  CLOUDY    41  32  70 W20       30.58F
COTTONWOOD PAS NOT AVBL
GUNNISON       PTSUNNY   61  46  59 NW6       30.32F
KREMMLING      PTSUNNY   59  50  72 CALM      30.28F
LEADVILLE      CLOUDY    54  43  66 S7        30.40F
MONARCH PASS   CLOUDY    45  43  93 SW10      30.66S
SALIDA         CLOUDY    59  53  79 SE10      30.39F
SUNLIGHT       LGT RAIN  50  46  87 CALM      30.50S
WILKERSON PASS FOG       45  45 100 SW7       30.54F VSB 1/4
$$

COZ069>075-071700-
...SAN LUIS VALLEY/SANGRE DE CRISTO MOUNTAINS...

CITY           SKY/WX    TMP DP  RH WIND       PRES   REMARKS
ALAMOSA        LGT RAIN  57  54  89 S6        30.32F
LA VETA PASS   FOG       45  43  93 MISG      30.47S VSB 1/2
SAGUACHE       CLOUDY    57  52  82 SE5       30.35S
$$

COZ035-036-038>040-071700-
...NORTHERN COLORADO FRONT RANGE...

CITY           SKY/WX    TMP DP  RH WIND       PRES   REMARKS
DENVER INTL AP PTSUNNY   66  52  60 SE18G25   30.19F HAZE
DMNS CITY PARK   N/A     65  54  67 N5        30.18F
AURORA         PTSUNNY   63  53  70 SE12      30.21F HAZE
FRONT RANGE AP PTSUNNY   64  52  63 SE23      30.22F HAZE
ERIE MUNI ARPT CLOUDY    63  56  80 CALM      30.18F HAZE
BOULDER MUN AP CLOUDY    61  57  88 CALM      30.19F FOG
CENTENNIAL     PTSUNNY   63  54  72 SE13      30.21F HAZE
BROOMFIELD       N/A     61  57  88 CALM      30.21F FOG
FORT COLLINS   CLOUDY    63  54  72 SE6       30.21S
LONGMONT       CLOUDY    64  56  75 CALM      30.20F HAZE
$$

COZ041-046-047-076>085-087-088-071700-
...PIKES PEAK/PALMER DIVIDE AND SOUTHERN FOOTHILLS...

CITY           SKY/WX    TMP DP  RH WIND       PRES   REMARKS
COLO. SPRINGS  CLOUDY    54  51  90 S14       30.30F FOG
A. F. ACADEMY  CLOUDY    52  52 100 S12       30.29F FOG
ELLICOTT       LGT RAIN N/A N/A N/A S14       30.29F
FALCON         LGT RAIN  51  50  96 S9        30.33F
FORT CARSON    NOT AVBL
LIMON          CLOUDY    59  51  75 S13       30.27S HAZE
MONUMENT HILL  CLOUDY    52  50  93 S17       30.31R FOG
TRINIDAD       CLOUDY    58  53  84 SE7       30.27F HAZE
$$

COZ042>045-048>051-090-091-071700-
...NORTHEAST COLORADO...

CITY           SKY/WX    TMP DP  RH WIND       PRES   REMARKS
GREELEY ARPT   CLOUDY    66  54  63 SE15      30.20F
AKRON          PTSUNNY   64  50  60 S18G25    30.24F
BURLINGTON     MOSUNNY   66  46  48 E10       30.25F
WRAY           CLOUDY    68  49  50 E10       30.24F
STERLING       PTSUNNY   68  52  56 S15         N/A
HOLYOKE        MOSUNNY   68  52  56 SE13      30.23F
FORT MORGAN    PTSUNNY   65  51  60 S15       30.22F
$$

COZ086-089-092>099-071700-
...SOUTHEAST COLORADO...

CITY           SKY/WX    TMP DP  RH WIND       PRES   REMARKS
PUEBLO         CLOUDY    64  53  67 E13       30.24F HAZE
LA JUNTA       PTSUNNY   67  52  58 E10       30.23F HAZE
LAMAR          MOSUNNY   68  49  50 E13       30.21F HAZE
SPRINGFIELD      N/A     63  53  70 NE12      30.22F
$$



USA.gov is the U.S. government's official web portal to all federal, state and local government web resources and services.